�������l�o���
Date,Time,MP-1(��Sv/h),MP-2(��Sv/h),MP-3(��Sv/h),MP-4(��Sv/h),MP-5(��Sv/h),MP-6(��Sv/h),MP-7(��Sv/h),����,����(m/s),���J
2016/11/10,00:00,0.421,0.244,0.433,0.394,0.368,0.202,0.175,�k��,3.7,��
2016/11/10,00:10,0.419,0.243,0.432,0.394,0.369,0.202,0.175,���k��,2.7,��
2016/11/10,00:20,0.419,0.244,0.432,0.394,0.368,0.203,0.175,���k��,3.2,��
2016/11/10,00:30,0.421,0.244,0.434,0.395,0.368,0.202,0.174,�k�k��,3.6,��
2016/11/10,00:40,0.422,0.243,0.433,0.393,0.369,0.203,0.175,�k��,2.5,��
2016/11/10,00:50,0.420,0.243,0.431,0.395,0.370,0.204,0.175,�k�k��,2.1,��
2016/11/10,01:00,0.419,0.244,0.432,0.394,0.368,0.203,0.174,�k,1.7,��
2016/11/10,01:10,0.420,0.242,0.432,0.395,0.368,0.204,0.175,�k,1.4,��
2016/11/10,01:20,0.421,0.243,0.434,0.393,0.368,0.203,0.175,�k��,0.9,��
2016/11/10,01:30,0.418,0.244,0.432,0.395,0.367,0.202,0.174,�k�k��,1.0,��
2016/11/10,01:40,0.419,0.243,0.432,0.394,0.367,0.203,0.174,�k��,1.3,��
2016/11/10,01:50,0.419,0.244,0.434,0.393,0.367,0.201,0.175,���k��,2.2,��
2016/11/10,02:00,0.420,0.245,0.433,0.393,0.367,0.202,0.175,�k�k��,1.9,��
2016/11/10,02:10,0.420,0.244,0.431,0.394,0.366,0.202,0.175,�k,1.6,��
2016/11/10,02:20,0.420,0.244,0.433,0.394,0.368,0.204,0.174,�k�k��,2.1,��
2016/11/10,02:30,0.421,0.243,0.434,0.392,0.369,0.203,0.175,�k��,2.2,��
2016/11/10,02:40,0.421,0.244,0.433,0.392,0.366,0.203,0.175,�k�k��,1.4,��
2016/11/10,02:50,0.418,0.245,0.432,0.394,0.368,0.203,0.175,-,CALM,��
2016/11/10,03:00,0.419,0.244,0.431,0.394,0.369,0.203,0.175,��,1.5,��
2016/11/10,03:10,0.420,0.244,0.433,0.393,0.367,0.202,0.174,�쐼,1.9,��
2016/11/10,03:20,0.422,0.244,0.433,0.392,0.369,0.203,0.175,���쐼,1.7,��
2016/11/10,03:30,0.419,0.245,0.431,0.392,0.366,0.203,0.175,��,2.6,��
2016/11/10,03:40,0.419,0.244,0.432,0.395,0.368,0.202,0.174,���k��,2.5,��
2016/11/10,03:50,0.420,0.245,0.432,0.394,0.369,0.203,0.174,���k��,5.0,��
2016/11/10,04:00,0.421,0.245,0.433,0.393,0.368,0.202,0.174,���k��,6.2,��
2016/11/10,04:10,0.421,0.243,0.434,0.392,0.366,0.203,0.175,���k��,5.9,��
2016/11/10,04:20,0.418,0.243,0.433,0.394,0.368,0.203,0.174,�k��,5.6,��
2016/11/10,04:30,0.419,0.242,0.432,0.393,0.369,0.203,0.174,�k��,5.0,��
2016/11/10,04:40,0.420,0.243,0.432,0.394,0.367,0.202,0.175,�k��,5.4,��
2016/11/10,04:50,0.422,0.242,0.434,0.393,0.367,0.202,0.176,�k�k��,5.0,��
2016/11/10,05:00,0.419,0.242,0.433,0.393,0.367,0.202,0.175,�k��,6.8,��
2016/11/10,05:10,0.419,0.244,0.433,0.392,0.368,0.203,0.174,�k��,7.2,��
2016/11/10,05:20,0.419,0.244,0.433,0.394,0.368,0.202,0.173,�k��,6.5,��
2016/11/10,05:30,0.421,0.244,0.433,0.392,0.366,0.202,0.174,���k��,5.6,��
2016/11/10,05:40,0.418,0.242,0.433,0.393,0.367,0.201,0.174,�k��,5.9,��
2016/11/10,05:50,0.418,0.242,0.432,0.392,0.366,0.203,0.174,�k��,5.9,��
2016/11/10,06:00,0.420,0.243,0.431,0.392,0.367,0.202,0.174,�k�k��,4.2,��
2016/11/10,06:10,0.419,0.243,0.433,0.391,0.368,0.203,0.175,�k,4.0,��
2016/11/10,06:20,0.418,0.243,0.431,0.393,0.366,0.202,0.173,�k,4.5,��
2016/11/10,06:30,0.419,0.243,0.431,0.392,0.368,0.202,0.175,�k,5.3,��
2016/11/10,06:40,0.420,0.243,0.430,0.390,0.368,0.201,0.173,�k�k��,4.8,��
2016/11/10,06:50,0.417,0.242,0.432,0.394,0.367,0.201,0.174,�k�k��,3.6,��
2016/11/10,07:00,0.420,0.243,0.432,0.391,0.368,0.201,0.174,�k,2.6,��
2016/11/10,07:10,0.419,0.243,0.431,0.392,0.367,0.202,0.174,�k�k��,1.4,��
2016/11/10,07:20,0.418,0.243,0.433,0.392,0.368,0.201,0.174,�k�k��,3.7,��
2016/11/10,07:30,0.419,0.243,0.432,0.393,0.368,0.202,0.174,�k,3.3,��
2016/11/10,07:40,0.420,0.242,0.431,0.392,0.368,0.201,0.173,�k�k��,3.6,��
2016/11/10,07:50,0.418,0.243,0.432,0.391,0.367,0.201,0.174,�k,4.2,��
2016/11/10,08:00,0.418,0.244,0.433,0.393,0.368,0.202,0.173,�k,2.5,��
2016/11/10,08:10,0.420,0.243,0.432,0.392,0.369,0.203,0.174,�k,3.5,��
2016/11/10,08:20,0.418,0.243,0.433,0.394,0.368,0.202,0.175,�k�k��,1.1,��
2016/11/10,08:30,0.419,0.243,0.432,0.391,0.368,0.201,0.174,�k,3.3,��
2016/11/10,08:40,0.420,0.243,0.429,0.391,0.369,0.203,0.174,-,CALM,��
2016/11/10,08:50,0.419,0.243,0.433,0.394,0.368,0.202,0.175,�k,1.8,��
2016/11/10,09:00,0.419,0.242,0.432,0.392,0.368,0.201,0.175,�k,3.3,��
2016/11/10,09:10,0.419,0.243,0.429,0.391,0.369,0.202,0.174,���k��,1.3,��
2016/11/10,09:20,0.419,0.243,0.433,0.393,0.366,0.202,0.174,-,CALM,��
2016/11/10,09:30,0.418,0.242,0.431,0.392,0.370,0.202,0.173,�k��,0.7,��
2016/11/10,09:40,0.420,0.243,0.431,0.393,0.365,0.202,0.173,-,CALM,��
2016/11/10,09:50,0.416,0.242,0.431,0.392,0.366,0.202,0.173,�k��,0.6,��
2016/11/10,10:00,0.420,0.244,0.430,0.393,0.368,0.204,0.174,���k��,1.1,��
2016/11/10,10:10,0.417,0.243,0.433,0.391,0.365,0.203,0.173,�k��,2.4,��
2016/11/10,10:20,0.419,0.243,0.430,0.394,0.368,0.202,0.174,���k��,1.9,��
2016/11/10,10:30,0.418,0.242,0.431,0.391,0.365,0.202,0.174,�k��,1.5,��
2016/11/10,10:40,0.418,0.243,0.432,0.393,0.367,0.201,0.174,���k��,0.9,��
2016/11/10,10:50,0.422,0.243,0.428,0.392,0.367,0.203,0.174,��,0.7,��
2016/11/10,11:00,0.419,0.242,0.432,0.393,0.367,0.201,0.174,�k��,3.3,��
2016/11/10,11:10,0.418,0.243,0.429,0.393,0.368,0.203,0.174,�k,2.1,��
2016/11/10,11:20,0.419,0.242,0.433,0.392,0.367,0.202,0.173,�k,2.3,��
2016/11/10,11:30,0.418,0.242,0.432,0.394,0.369,0.203,0.174,�k�k��,1.9,��
2016/11/10,11:40,0.419,0.244,0.430,0.391,0.367,0.202,0.174,�k�k��,1.8,��
2016/11/10,11:50,0.419,0.243,0.432,0.394,0.367,0.202,0.174,�k��,2.7,��
2016/11/10,12:00,0.421,0.244,0.430,0.393,0.367,0.202,0.174,���k��,2.8,��
2016/11/10,12:10,0.418,0.243,0.433,0.393,0.365,0.202,0.174,���k��,4.2,��
2016/11/10,12:20,0.419,0.243,0.430,0.392,0.369,0.202,0.174,�k��,1.4,��
2016/11/10,12:30,0.419,0.243,0.431,0.392,0.366,0.202,0.174,�k��,1.9,��
2016/11/10,12:40,0.418,0.243,0.430,0.390,0.368,0.203,0.173,�k�k��,2.2,��
2016/11/10,12:50,0.420,0.244,0.434,0.395,0.365,0.203,0.175,���k��,2.0,��
2016/11/10,13:00,0.419,0.242,0.432,0.391,0.369,0.202,0.174,�k�k��,2.2,��
2016/11/10,13:10,0.417,0.243,0.431,0.395,0.368,0.203,0.173,�k,1.7,��
2016/11/10,13:20,0.419,0.244,0.430,0.392,0.369,0.202,0.174,�k��,2.6,��
2016/11/10,13:30,0.418,0.242,0.430,0.394,0.367,0.203,0.174,�k�k��,2.0,��
2016/11/10,13:40,0.420,0.243,0.434,0.393,0.365,0.202,0.173,�k�k��,3.2,��
2016/11/10,13:50,0.418,0.243,0.431,0.392,0.369,0.203,0.173,�k��,2.5,��
2016/11/10,14:00,0.418,0.243,0.431,0.393,0.366,0.202,0.172,�k��,1.6,��
2016/11/10,14:10,0.421,0.244,0.431,0.394,0.370,0.202,0.173,�k��,1.7,��
2016/11/10,14:20,0.418,0.242,0.430,0.394,0.368,0.203,0.174,��,0.6,��
2016/11/10,14:30,0.418,0.243,0.432,0.393,0.367,0.202,0.173,��,1.1,��
2016/11/10,14:40,0.421,0.243,0.430,0.395,0.371,0.202,0.173,��,0.7,��
2016/11/10,14:50,0.419,0.243,0.433,0.392,0.367,0.202,0.174,���k��,0.8,��
2016/11/10,15:00,0.420,0.243,0.431,0.393,0.371,0.203,0.174,���쓌,1.3,��
2016/11/10,15:10,0.418,0.243,0.431,0.391,0.368,0.203,0.174,���쓌,1.2,��
2016/11/10,15:20,0.416,0.244,0.433,0.394,0.365,0.202,0.174,���쓌,1.1,��
2016/11/10,15:30,0.420,0.243,0.431,0.393,0.372,0.202,0.174,�쓌,1.4,��
2016/11/10,15:40,0.419,0.243,0.434,0.392,0.367,0.202,0.175,-,CALM,��
2016/11/10,15:50,0.418,0.243,0.431,0.394,0.370,0.202,0.175,-,CALM,��
2016/11/10,16:00,0.420,0.243,0.431,0.394,0.368,0.201,0.174,-,CALM,��
2016/11/10,16:10,0.418,0.243,0.432,0.394,0.366,0.201,0.175,�k�k��,0.5,��
2016/11/10,16:20,0.420,0.243,0.430,0.396,0.368,0.202,0.175,�k�k��,1.0,��
2016/11/10,16:30,0.419,0.243,0.433,0.393,0.369,0.203,0.174,�k,0.7,��
2016/11/10,16:40,0.418,0.243,0.432,0.395,0.366,0.202,0.175,�k,0.6,��
2016/11/10,16:50,0.421,0.242,0.431,0.393,0.370,0.203,0.175,�k,0.5,��
2016/11/10,17:00,0.417,0.243,0.434,0.393,0.367,0.202,0.174,-,CALM,��
2016/11/10,17:10,0.417,0.243,0.431,0.392,0.369,0.203,0.175,-,CALM,��
2016/11/10,17:20,0.421,0.243,0.433,0.393,0.369,0.203,0.175,-,CALM,��
2016/11/10,17:30,0.420,0.244,0.434,0.392,0.367,0.202,0.175,-,CALM,��
2016/11/10,17:40,0.418,0.244,0.433,0.394,0.368,0.203,0.174,-,CALM,��
2016/11/10,17:50,0.421,0.244,0.433,0.394,0.369,0.202,0.174,���k��,1.1,��
2016/11/10,18:00,0.420,0.242,0.434,0.393,0.369,0.202,0.175,��,0.8,��
2016/11/10,18:10,0.418,0.243,0.432,0.394,0.368,0.202,0.175,�쐼,1.0,��
2016/11/10,18:20,0.419,0.243,0.432,0.394,0.369,0.203,0.175,�쐼,1.9,��
2016/11/10,18:30,0.419,0.244,0.434,0.393,0.369,0.202,0.175,���쐼,1.3,��
2016/11/10,18:40,0.419,0.243,0.433,0.394,0.368,0.203,0.174,��,1.4,��
2016/11/10,18:50,0.419,0.244,0.432,0.394,0.369,0.203,0.174,��,1.4,��
2016/11/10,19:00,0.420,0.244,0.436,0.394,0.368,0.202,0.175,�쐼,1.2,��
2016/11/10,19:10,0.419,0.243,0.433,0.394,0.368,0.202,0.175,�쐼,1.7,��
2016/11/10,19:20,0.421,0.243,0.432,0.394,0.370,0.203,0.175,�쐼,1.7,��
2016/11/10,19:30,0.419,0.244,0.435,0.393,0.370,0.202,0.174,�쐼,1.3,��
2016/11/10,19:40,0.420,0.244,0.433,0.393,0.368,0.202,0.175,�쐼,1.1,��
2016/11/10,19:50,0.420,0.242,0.432,0.394,0.369,0.203,0.175,��,0.8,��
2016/11/10,20:00,0.419,0.243,0.434,0.394,0.369,0.204,0.174,���쐼,1.1,��
2016/11/10,20:10,0.419,0.243,0.433,0.394,0.368,0.204,0.175,���쐼,1.0,��
2016/11/10,20:20,0.419,0.243,0.433,0.394,0.367,0.203,0.175,-,CALM,��
2016/11/10,20:30,0.420,0.243,0.433,0.395,0.369,0.202,0.175,��쐼,0.6,��
2016/11/10,20:40,0.420,0.242,0.434,0.395,0.366,0.204,0.174,���쐼,0.5,��
2016/11/10,20:50,0.419,0.244,0.434,0.394,0.368,0.202,0.174,���쐼,0.5,��
2016/11/10,21:00,0.418,0.244,0.432,0.396,0.368,0.202,0.174,���쐼,1.1,��
2016/11/10,21:10,0.420,0.243,0.434,0.394,0.369,0.203,0.175,�쐼,1.5,��
2016/11/10,21:20,0.418,0.243,0.432,0.394,0.368,0.203,0.175,��쐼,1.4,��
2016/11/10,21:30,0.418,0.243,0.430,0.395,0.367,0.202,0.174,-,CALM,��
2016/11/10,21:40,0.421,0.244,0.432,0.393,0.369,0.202,0.174,��쐼,0.8,��
2016/11/10,21:50,0.420,0.243,0.432,0.393,0.367,0.204,0.174,���쐼,1.0,��
2016/11/10,22:00,0.420,0.243,0.432,0.394,0.367,0.202,0.175,��쐼,1.1,��
2016/11/10,22:10,0.420,0.243,0.434,0.394,0.369,0.203,0.174,�쐼,1.0,��
2016/11/10,22:20,0.418,0.243,0.434,0.392,0.366,0.203,0.175,��쐼,1.1,��
2016/11/10,22:30,0.421,0.243,0.433,0.394,0.369,0.203,0.175,��쐼,1.7,��
2016/11/10,22:40,0.419,0.243,0.434,0.394,0.370,0.203,0.174,�쐼,1.6,��
2016/11/10,22:50,0.417,0.244,0.434,0.394,0.367,0.202,0.174,�쐼,1.3,��
2016/11/10,23:00,0.419,0.243,0.431,0.395,0.367,0.202,0.175,�쐼,1.8,��
2016/11/10,23:10,0.417,0.245,0.433,0.393,0.368,0.203,0.175,��쐼,1.6,��
2016/11/10,23:20,0.418,0.244,0.432,0.393,0.366,0.202,0.174,��쐼,1.4,��
2016/11/10,23:30,0.419,0.245,0.432,0.395,0.368,0.203,0.174,��쐼,1.1,��
2016/11/10,23:40,0.421,0.242,0.435,0.393,0.369,0.202,0.175,��쐼,1.9,��
2016/11/10,23:50,0.417,0.244,0.434,0.394,0.367,0.203,0.174,��쐼,1.2,��
